Stations météo

Publicité
Boulogne, France (7002): Température de l'air & dewpoint: 31.03.2020 16:00:00 - 06.04.2020 16:00:00 (CEST)Boulogne, France (7002): Vitesse du vent & gusts: 31.03.2020 16:00:00 - 06.04.2020 16:00:00 (CEST)Boulogne, France (7002): Direction du vent: 31.03.2020 16:00:00 - 06.04.2020 16:00:00 (CEST)Boulogne, France (7002): reduced air pressure: 31.03.2020 16:00:00 - 06.04.2020 16:00:00 (CEST)Boulogne, France (7002): visibility: 31.03.2020 16:00:00 - 06.04.2020 16:00:00 (CEST)Boulogne, France (7002): Quantités de précipitations: 31.03.2020 16:00:00 - 06.04.2020 16:00:00 (CEST)
Date & Time tt [°C] td [°C] ff [km/h] ff [knt] fx [km/h] fx [knt] dd ppp [hPa] vv [km] rr [mm]
06.04.2020 16:00:00 - - - - - - - - - -
06.04.2020 15:00:00 11,5 9,2 24 13 38 20 SW 1020,5 - 0,0
06.04.2020 14:00:00 10,8 8,7 21 11 38 20 SSW 1019,9 - 0,2
06.04.2020 13:00:00 10,9 7,8 24 13 47 26 SSW 1019,0 - 0,2
06.04.2020 12:00:00 12,3 6,3 18 10 41 22 SSW 1017,8 - 0,0
06.04.2020 11:00:00 13,4 5,3 23 12 48 26 SSW 1017,0 18 0,0
06.04.2020 10:00:00 14,3 3,1 23 12 45 25 S 1015,7 - 0,0
06.04.2020 09:00:00 14,1 2,9 19 10 40 22 S 1014,8 - 0,0
06.04.2020 08:00:00 13,2 2,7 21 12 39 21 S 1014,3 18 0,0
06.04.2020 07:00:00 12,6 1,6 21 11 38 20 SE 1013,4 - 0,0
06.04.2020 06:00:00 13,1 1,4 16 9 39 21 SE 1013,1 - 0,0
06.04.2020 05:00:00 13,9 1,5 23 13 36 19 SSE 1012,6 15 0,0
06.04.2020 04:00:00 14,0 1,6 21 11 34 18 SE 1012,5 - 0,0
06.04.2020 03:00:00 14,3 1,9 18 10 32 17 SE 1012,7 - 0,0
06.04.2020 02:00:00 14,5 2,1 19 11 35 19 SE 1012,8 - 0,0
06.04.2020 01:00:00 14,9 2,4 21 12 34 19 SE 1012,9 - 0,0
06.04.2020 00:00:00 15,4 2,9 16 9 30 16 SE 1013,0 - 0,0
05.04.2020 23:00:00 16,5 3,9 16 9 28 15 SE 1013,2 15 0,0
05.04.2020 22:00:00 17,0 4,0 14 8 29 16 SE 1013,1 - 0,0
05.04.2020 21:00:00 18,1 4,3 16 9 35 19 SSE 1013,1 - 0,0
05.04.2020 20:00:00 20,0 4,1 17 9 41 22 SSE 1012,9 15 0,0
05.04.2020 19:00:00 21,0 3,7 23 12 39 21 SSE 1012,9 - 0,0
05.04.2020 18:00:00 21,5 4,5 19 10 39 21 SE 1013,2 - 0,0
05.04.2020 17:00:00 21,4 4,5 18 10 39 21 SSE 1013,6 - 0,0
05.04.2020 16:00:00 21,3 4,4 18 10 39 21 SSE 1014,2 - 0,0
05.04.2020 15:00:00 20,5 4,9 18 10 40 21 SSE 1014,9 - 0,0
05.04.2020 14:00:00 19,4 4,7 22 12 41 22 SSE 1015,3 15 0,0
05.04.2020 13:00:00 17,2 3,5 25 13 44 24 SSE 1015,9 - 0,0
05.04.2020 12:00:00 15,2 4,0 19 10 38 20 SE 1016,7 - 0,0
05.04.2020 11:00:00 14,1 2,6 17 9 37 20 SE 1017,1 15 0,0
05.04.2020 10:00:00 12,3 2,2 19 11 37 20 SE 1017,5 - 0,0
05.04.2020 09:00:00 10,6 1,7 14 7 32 17 SE 1018,2 - 0,0
05.04.2020 08:00:00 9,6 1,0 22 12 33 18 SE 1018,2 - 0,0
05.04.2020 07:00:00 9,8 0,7 19 11 32 18 ESE 1017,9 - 0,0
05.04.2020 06:00:00 10,2 0,8 17 9 38 21 ESE 1018,1 - 0,0
05.04.2020 05:00:00 10,9 0,6 21 11 41 22 ESE 1018,4 - 0,0
05.04.2020 04:00:00 11,3 0,4 21 12 37 20 ESE 1019,0 - 0,0
05.04.2020 03:00:00 11,4 1,1 21 11 34 18 ESE 1019,5 - 0,0
05.04.2020 02:00:00 11,3 1,2 16 9 28 15 SE 1020,2 15 0,0
05.04.2020 01:00:00 11,6 1,5 15 8 32 17 ESE 1020,4 - 0,0
05.04.2020 00:00:00 11,7 1,9 17 9 37 20 ESE 1020,4 - 0,0
04.04.2020 23:00:00 12,3 2,2 21 11 37 20 ESE 1020,2 15 0,0
04.04.2020 22:00:00 12,6 3,0 16 8 27 14 E 1020,2 - 0,0
04.04.2020 21:00:00 12,8 4,7 11 6 19 10 E 1020,2 - 0,0
04.04.2020 20:00:00 13,2 5,8 6 4 22 12 NE 1020,2 - 0,0
04.04.2020 19:00:00 13,7 6,5 9 5 17 9 N 1020,2 - 0,0
04.04.2020 18:00:00 12,9 5,1 11 6 19 10 N 1020,4 - 0,0
04.04.2020 17:00:00 12,7 5,1 10 5 19 11 NNW 1020,8 - 0,0
04.04.2020 16:00:00 11,4 4,6 13 7 20 11 NNW 1021,4 - 0,0
04.04.2020 15:00:00 11,5 3,8 9 5 16 9 NNW 1021,7 - 0,0
04.04.2020 14:00:00 10,9 5,0 7 4 14 7 NNW 1022,0 - 0,0
04.04.2020 13:00:00 9,6 5,2 7 4 13 7 WNW 1022,6 - 0,0
04.04.2020 12:00:00 8,6 4,4 6 3 12 7 NW 1023,0 - 0,0
04.04.2020 11:00:00 8,7 4,1 4 2 9 5 WNW 1023,0 12 0,0
04.04.2020 10:00:00 9,9 3,4 5 3 12 7 SSE 1022,4 - 0,0
04.04.2020 09:00:00 7,7 2,6 8 4 13 7 SE 1022,3 - 0,0
04.04.2020 08:00:00 6,1 2,5 11 6 13 7 ESE 1021,9 - 0,0
04.04.2020 07:00:00 5,0 2,7 10 6 14 8 SE 1021,8 - 0,0
04.04.2020 06:00:00 5,6 2,9 10 6 14 7 SE 1021,7 - 0,0
04.04.2020 05:00:00 5,8 3,6 10 6 15 8 SE 1021,4 - 0,0
04.04.2020 04:00:00 5,7 4,5 11 6 18 10 SE 1021,6 - 0,0
04.04.2020 03:00:00 5,7 4,7 13 7 20 11 SE 1021,4 - 0,0
04.04.2020 02:00:00 5,5 4,3 13 7 19 10 SE 1021,5 - 0,0
04.04.2020 01:00:00 6,0 4,5 11 6 16 9 SE 1021,4 - 0,0
04.04.2020 00:00:00 6,7 5,0 9 5 14 7 SSE 1021,0 - 0,0
03.04.2020 23:00:00 7,2 5,3 8 4 11 6 SE 1021,1 14 0,0
03.04.2020 22:00:00 7,7 5,7 6 4 10 5 SSE 1020,8 - 0,0
03.04.2020 21:00:00 8,2 5,3 6 3 14 8 SW 1020,5 - 0,0
03.04.2020 20:00:00 8,8 6,2 9 5 18 10 SW 1019,9 14 0,0
03.04.2020 19:00:00 10,0 6,2 13 7 19 10 SW 1019,7 - 0,0
03.04.2020 18:00:00 9,8 3,5 7 4 19 11 W 1019,5 - 0,0
03.04.2020 17:00:00 9,6 2,7 6 3 13 7 W 1019,3 - 0,0
03.04.2020 16:00:00 9,5 2,1 8 4 13 7 W 1019,3 - 0,0
03.04.2020 15:00:00 9,8 2,2 7 4 11 6 WNW 1019,2 - 0,0
03.04.2020 14:00:00 9,0 3,0 6 3 13 7 NW 1019,2 - 0,0
03.04.2020 13:00:00 9,1 2,0 8 4 16 9 NNW 1019,1 - 0,0
03.04.2020 12:00:00 9,1 2,2 8 4 18 10 NNW 1018,9 - 0,0
03.04.2020 11:00:00 8,6 2,6 10 5 16 9 NW 1018,5 14 0,0
03.04.2020 10:00:00 8,1 3,4 8 4 20 11 N 1017,7 - 0,0
03.04.2020 09:00:00 7,9 5,9 6 3 18 10 WNW 1017,5 - 0,0
03.04.2020 08:00:00 7,8 5,3 9 5 14 8 W 1016,9 - 0,0
03.04.2020 07:00:00 7,6 4,7 11 6 24 13 NNW 1016,2 - 0,0
03.04.2020 06:00:00 7,9 5,4 16 9 27 15 NNW 1015,7 - 0,0
03.04.2020 05:00:00 8,1 6,4 13 7 22 12 NW 1015,4 - 0,0
03.04.2020 04:00:00 8,4 6,0 16 9 29 15 NW 1015,1 - 0,0
03.04.2020 03:00:00 8,4 6,4 13 7 23 12 NW 1015,1 - 0,0
03.04.2020 02:00:00 8,4 6,4 10 5 29 16 WNW 1015,0 - 0,0
03.04.2020 01:00:00 8,9 6,5 16 9 41 22 WNW 1014,9 - 0,0
03.04.2020 00:00:00 9,2 6,6 21 11 31 17 W 1014,8 - 0,0
02.04.2020 23:00:00 8,7 7,0 18 10 32 17 W 1014,6 14 0,0
02.04.2020 22:00:00 8,6 7,1 16 9 33 18 WSW 1014,6 - 0,0
02.04.2020 21:00:00 8,4 6,9 22 12 35 19 SW 1014,4 - 0,0
02.04.2020 20:00:00 8,3 6,6 24 13 39 21 SW 1014,4 - 0,0
02.04.2020 19:00:00 8,2 6,0 27 15 44 24 SW 1014,6 - 0,0
02.04.2020 18:00:00 8,3 5,9 25 14 36 19 WSW 1014,8 - 0,0
02.04.2020 17:00:00 9,2 6,6 25 14 37 20 WSW 1015,0 - 0,0
02.04.2020 16:00:00 8,0 4,4 22 12 34 19 WSW 1015,5 - 0,0
02.04.2020 15:00:00 8,7 4,1 21 11 35 19 W 1016,0 - 0,0
02.04.2020 14:00:00 8,4 1,8 20 11 32 17 W 1016,3 - 0,0
02.04.2020 13:00:00 8,6 2,4 21 12 31 17 W 1016,6 - 0,0
02.04.2020 12:00:00 8,6 2,2 16 8 23 12 W 1016,9 - 0,0
02.04.2020 11:00:00 7,8 2,3 14 8 23 13 WNW 1017,0 - 0,0
02.04.2020 10:00:00 7,6 2,3 12 6 22 12 WNW 1016,9 - 0,0
02.04.2020 09:00:00 6,7 0,8 9 5 15 8 NW 1017,3 - 0,0
02.04.2020 08:00:00 6,3 2,4 7 4 13 7 NW 1017,3 - 0,0
02.04.2020 07:00:00 6,2 2,1 8 4 15 8 NNW 1017,3 - 0,0
02.04.2020 06:00:00 6,4 2,7 9 5 18 10 NNW 1017,5 - 0,0
02.04.2020 05:00:00 6,6 1,9 8 4 17 9 NW 1017,7 10 0,0
02.04.2020 04:00:00 6,4 1,7 9 5 18 10 NW 1018,3 - 0,0
02.04.2020 03:00:00 5,7 1,2 4 2 16 9 S 1018,7 - 0,0
02.04.2020 02:00:00 5,7 1,4 6 4 11 6 WSW 1019,1 10 0,0
02.04.2020 01:00:00 5,1 -0,3 3 2 5 3 S 1019,5 - 0,0
02.04.2020 00:00:00 4,9 -0,3 5 3 6 4 S 1020,0 - 0,0
01.04.2020 23:00:00 5,1 -0,7 5 3 13 7 SE 1020,2 10 0,0
01.04.2020 22:00:00 5,4 -0,7 10 5 15 8 E 1020,3 - 0,0
01.04.2020 21:00:00 5,9 -1,1 9 5 16 9 ENE 1020,4 - 0,0
01.04.2020 20:00:00 6,9 -0,8 7 4 25 13 NE 1020,3 - 0,0
01.04.2020 19:00:00 7,7 -0,5 12 7 30 16 NNE 1020,8 - 0,0
01.04.2020 18:00:00 8,4 -0,6 14 8 34 18 NNE 1020,8 - 0,0
01.04.2020 17:00:00 8,7 -0,9 16 9 35 19 N 1021,1 - 0,0
01.04.2020 16:00:00 7,7 1,5 16 9 29 16 NNW 1021,8 - 0,0
01.04.2020 15:00:00 7,7 0,4 16 9 34 19 NNW 1022,5 - 0,0
01.04.2020 14:00:00 7,9 -0,3 18 10 41 22 N 1022,8 10 0,0
01.04.2020 13:00:00 8,3 -0,2 11 6 25 14 N 1023,5 - 0,0
01.04.2020 12:00:00 7,1 -1,1 13 7 26 14 NNE 1024,1 - 0,0
01.04.2020 11:00:00 6,6 -0,4 13 7 24 13 NE 1024,6 10 0,0
01.04.2020 10:00:00 5,8 -1,4 11 6 23 12 ENE 1024,9 - 0,0
01.04.2020 09:00:00 4,2 -2,4 10 5 22 12 E 1025,1 - 0,0
01.04.2020 08:00:00 3,0 -2,5 15 8 27 15 ENE 1025,1 - 0,0
01.04.2020 07:00:00 2,3 -1,9 19 11 29 15 ENE 1025,1 - 0,0
01.04.2020 06:00:00 2,5 -1,3 19 11 29 15 E 1025,5 - 0,0
01.04.2020 05:00:00 2,6 -0,7 19 10 27 14 ENE 1025,9 - 0,0
01.04.2020 04:00:00 3,2 0,4 17 9 29 15 ENE 1026,6 - 0,0
01.04.2020 03:00:00 3,6 0,5 19 11 31 17 ENE 1027,1 - 0,0
01.04.2020 02:00:00 3,7 0,4 18 10 29 15 ENE 1027,4 - 0,0
01.04.2020 01:00:00 3,7 0,0 16 9 27 15 ENE 1028,0 - 0,0
01.04.2020 00:00:00 3,9 -0,3 16 9 29 16 ENE 1028,3 - 0,0
31.03.2020 23:00:00 4,0 -0,6 15 8 27 15 NE 1028,5 15 0,0
31.03.2020 22:00:00 4,1 -1,1 12 7 29 16 NE 1028,9 - 0,0
31.03.2020 21:00:00 4,6 -1,6 12 7 31 17 NE 1029,0 - 0,0
31.03.2020 20:00:00 5,8 -2,1 15 8 39 21 NE 1029,0 - 0,0
31.03.2020 19:00:00 6,8 -2,6 18 10 41 22 NE 1029,1 - 0,0
31.03.2020 18:00:00 7,5 -3,7 19 11 50 27 NE 1029,2 - 0,0
31.03.2020 17:00:00 7,7 -4,7 24 13 51 28 NE 1029,3 15 0,0
31.03.2020 16:00:00 8,3 -3,9 24 13 52 28 NE 1029,8 - 0,0

tt = Température de l'air
td = dewpoint
ff = Vitesse du vent
fx = gusts
dd = Direction du vent
ppp = reduced air pressure
vv = visibility
rr = Quantités de précipitations

stations d'obs. à proximité